Вернуться в каталог

DELTA 1 DEB

АктивенLEO
NORAD 12540·DEBRIS·🇺🇸 United States

Запущен Jul 29, 1976 с Vandenberg Space Force Base

Loading…

Ближайшие Пролёты (ближайшие 24 часа)

TLE

СвежийSource: Space-Track

Эпоха: Sep 14, 2026, 06:59 UTC

1 12540U 76077DV  26257.29134837 -.00000305  00000-0 -17496-2 0  9997
2 12540 102.4467  22.2981 0045429 187.4528 201.3712 12.47057453111851

Отслеживайте DELTA 1 DEB в реальном времени с AllMySat

Download on the App Store